JA6XZK-13 Weather Reports


time (UTC)temp
C
wind
direction
speed
KPH
gust
KPH
rain 1hr
cm
rain 24hr
cm
rain mn
cm
humidity
%
barometer
mb
20260509123315 19 0.0 0.0 0.00 0.00 0.00 34 1016.8
20260509120316 20 0.0 0.0 0.00 0.00 0.00 33 1016.5
20260509113317 20 0.0 0.0 0.00 0.00 0.00 31 1016.3
20260509110318 20 0.0 0.0 0.00 0.00 0.00 31 1016.0
20260509094653 21 0.0 0.0 0.00 0.00 0.00 28 1015.0
20260509091653 22 0.0 0.0 0.00 0.00 0.00 28 1014.9
20260509084654 22 0.0 0.0 0.00 0.00 0.00 28 1014.2
20260509081656 22 0.0 0.0 0.00 0.00 0.00 31 1014.2
20260509075010 19 0.0 0.0 0.00 0.00 0.00 51 1010.3
20260509071938 19 0.0 0.0 0.00 0.00 0.00 51 1010.3
20260509064939 19 0.0 0.0 0.00 0.00 0.00 51 1010.3
20260509061940 19 0.0 0.0 0.00 0.00 0.00 51 1010.3
20260509054940 19 0.0 0.0 0.00 0.00 0.00 51 1010.3
20260509051941 19 0.0 0.0 0.00 0.00 0.00 51 1010.3
20260509044942 19 0.0 0.0 0.00 0.00 0.00 51 1010.3
20260509041943 19 0.0 0.0 0.00 0.00 0.00 51 1010.3
20260509034944 19 0.0 0.0 0.00 0.00 0.00 51 1010.3
20260509031945 19 0.0 0.0 0.00 0.00 0.00 51 1010.3
20260509024946 19 0.0 0.0 0.00 0.00 0.00 51 1010.3
20260509021946 19 0.0 0.0 0.00 0.00 0.00 51 1010.3
20260509014947 19 0.0 0.0 0.00 0.00 0.00 51 1010.3
20260509011948 19 0.0 0.0 0.00 0.00 0.00 51 1010.3
20260509004949 19 0.0 0.0 0.00 0.00 0.00 51 1010.3
20260509001950 19 0.0 0.0 0.00 0.00 0.00 51 1010.3
20260508231952 19 0.0 0.0 0.00 0.00 0.00 51 1010.3
20260508224953 19 0.0 0.0 0.00 0.00 0.00 51 1010.3
20260508221953 19 0.0 0.0 0.00 0.00 0.00 51 1010.3
20260508214954 19 0.0 0.0 0.00 0.00 0.00 51 1010.3
20260508211955 19 0.0 0.0 0.00 0.00 0.00 51 1010.3
20260508204956 19 0.0 0.0 0.00 0.00 0.00 51 1010.3
20260508201957 19 0.0 0.0 0.00 0.00 0.00 51 1010.3
20260508194958 19 0.0 0.0 0.00 0.00 0.00 51 1010.3
20260508191959 19 0.0 0.0 0.00 0.00 0.00 51 1010.3
20260508184959 19 0.0 0.0 0.00 0.00 0.00 51 1010.3
20260508182000 19 0.0 0.0 0.00 0.00 0.00 51 1010.3
20260508175001 19 0.0 0.0 0.00 0.00 0.00 51 1010.3
20260508172002 19 0.0 0.0 0.00 0.00 0.00 51 1010.3
20260508165004 19 0.0 0.0 0.00 0.00 0.00 51 1010.3
20260508162004 19 0.0 0.0 0.00 0.00 0.00 51 1010.3
20260508155005 19 0.0 0.0 0.00 0.00 0.00 51 1010.3
20260508152005 19 0.0 0.0 0.00 0.00 0.00 51 1010.3
20260508145006 19 0.0 0.0 0.00 0.00 0.00 51 1010.3
20260508142007 19 0.0 0.0 0.00 0.00 0.00 51 1010.3
20260508135008 19 0.0 0.0 0.00 0.00 0.00 51 1010.3
20260508132009 19 0.0 0.0 0.00 0.00 0.00 51 1010.3
20260508125010 19 0.0 0.0 0.00 0.00 0.00 51 1010.3